Main page
METAR-TAF:

METAR-TAF

Airports :

Oil platform

D15-fa-1, Netherlands

latitude: 54-19-32N, longitude: 2-56-09E, elevation: 36 m

Current weather observation

The report was made 12 minutes ago, at 04:55 UTC
Wind 16 kt from the Southwest, varying between South/Southwest and West
Temperature 15°C
Humidity 94%
Pressure 1011 hPa
Visibility 10 km or more

METAR: EHDV 190455Z AUTO 22016KT 200V260 9999 BKN001/// OVC002/// 15/14 Q1011

Time: 07:07 (05:07 UTC)


TAF: missing

Weather observations and forecasts of more than 4000 airports (METAR and TAF reports).

The available stations are represented by yellow and red dots on the map.

Hover mouse over dot to see the name of the station.

Then click to see weather observations and forecasts.

To change the map : click on the green buttons with a black cross to zoom in, on the green button with a dash to zoom out, or on the green arrows for adjacent maps.


METAR-TAF: